This demonstration page uses our WeatherBlox Daily Observations layout. Learn more.

Left ArrowRight Arrow

Hourly Observations for May 25, 2021

Temp ( °F °C ) Dew Point ( °F °C ) Humidity (%) Winds ( mph kmh ) Pressure ( in mb ) Visibility ( mi km ) Precip ( " mm )
12:53 am 00:53 Cloudy 50 10 45 7.2 83 83 W 23 37 29.79 1009 10 16 0.00 0.00
1:53 am 01:53 Cloudy 50 10 45 7.2 83 83 W 18 30 29.81 1009 10 16 0.00 0.00
2:53 am 02:53 Cloudy 49 9.4 44 6.7 83 83 W 18 30 29.83 1010 10 16 0.00 0.00
3:53 am 03:53 Cloudy 49 9.4 44 6.7 83 83 W 18 30 29.87 1012 10 16 0.00 0.00
4:14 am 04:14 Cloudy 49 9.4 44 6.7 83 83 W 18 30 29.87 1012 10 16 0.00 0.00
4:53 am 04:53 Cloudy 49 9.4 44 6.7 83 83 W 18 30 29.89 1012 10 16 0.00 0.00
5:12 am 05:12 Cloudy 49 9.4 44 6.7 83 83 W 16 26 29.90 1013 10 16 0.00 0.00
5:53 am 05:53 Cloudy 48 8.9 44 6.7 86 86 WNW 14 22 29.93 1014 10 16 0.00 0.00
6:53 am 06:53 Cloudy 48 8.9 44 6.7 86 86 WNW 15 24 29.95 1014 10 16 0.00 0.00
7:02 am 07:02 Cloudy 48 8.9 44 6.7 86 86 WNW 14 22 29.95 1014 10 16 0.00 0.00
7:53 am 07:53 Cloudy 49 9.4 45 7.2 86 86 WNW 15 24 29.98 1015 10 16 0.00 0.00
8:53 am 08:53 Cloudy 50 10 44 6.7 80 80 WNW 18 30 30.01 1016 10 16 0.00 0.00
9:53 am 09:53 Cloudy 51 10.6 43 6.1 74 74 NW 16 26 30.04 1017 10 16 0.00 0.00
10:53 am 10:53 Mostly Cloudy 53 11.7 43 6.1 69 69 WNW 18 30 30.05 1018 10 16 0.00 0.00
11:41 am 11:41 Mostly Cloudy 57 13.9 45 7.2 64 64 WNW 17 28 30.01 1016 10 16 0.00 0.00
11:53 am 11:53 Mostly Cloudy 55 12.8 44 6.7 67 67 NW 17 28 30.06 1018 10 16 0.00 0.00
12:53 pm 12:53 Mostly Cloudy 57 13.9 44 6.7 62 62 WNW 15 24 30.06 1018 10 16 0.00 0.00
1:53 pm 13:53 Cloudy 57 13.9 44 6.7 62 62 NW 14 22 30.06 1018 10 16 0.00 0.00
2:53 pm 14:53 Cloudy 58 14.4 43 6.1 58 58 WNW 6 9 30.07 1018 10 16 0.00 0.00
3:53 pm 15:53 Cloudy 58 14.4 42 5.6 56 56 VRB 5 7 30.07 1018 10 16 0.00 0.00
4:53 pm 16:53 Cloudy 60 15.6 43 6.1 53 53 NW 6 9 30.07 1018 10 16 0.00 0.00
5:53 pm 17:53 Cloudy 59 15 43 6.1 56 56 N 6 9 30.07 1018 10 16 0.00 0.00
6:53 pm 18:53 Cloudy 59 15 44 6.7 58 58 ENE 8 13 30.07 1018 10 16 0.00 0.00
7:53 pm 19:53 Sunny 57 13.9 44 6.7 62 62 E 9 15 30.08 1019 10 16 0.00 0.00
8:53 pm 20:53 Cloudy 54 12.2 45 7.2 72 72 E 6 9 30.09 1019 10 16 0.00 0.00
9:53 pm 21:53 Mostly Cloudy 51 10.6 45 7.2 80 80 E 8 13 30.10 1019 10 16 0.00 0.00
10:53 pm 22:53 Clear 47 8.3 43 6.1 86 86 E 8 13 30.12 1020 10 16 0.00 0.00
11:53 pm 23:53 Clear 47 8.3 43 6.1 86 86 E 8 13 30.12 1020 10 16 0.00 0.00

Powered by AerisWeather